Torna al catalogo

XSS 10

AttivoMilitareLEO
NORAD 27664·PAYLOAD·🇺🇸 United States

Lanciato Jan 29, 2003 da Cape Canaveral Space Force Station

Loading…

Prossimi Passaggi (prossime 24 ore)

TLE

AggiornatoSource: Space-Track

Epoca: Sep 14, 2026, 13:56 UTC

1 27664U 03005B   26257.58065489  .00001156  00000-0  10794-3 0  9997
2 27664  39.7467 306.0939 0146441   9.4734 350.8764 14.90640063275976

Traccia XSS 10 in tempo reale con AllMySat

Download on the App Store